| time (UTC) | temp F | wind direction | speed knots | gust knots | rain 1hr in | rain 24hr in | rain mn in | humidity % | barometer mb |
| 20260507030048 | 64 | 79 | 1.7 | 9.6 | 0.00 | 0.00 | 0.00 | 82 | 1014.0 |
| 20260507025543 | 64 | 303 | 1.7 | 7.8 | 0.00 | 0.00 | 0.00 | 82 | 1014.1 |
| 20260507025036 | 64 | 33 | 2.6 | 9.6 | 0.00 | 0.00 | 0.00 | 82 | 1014.0 |
| 20260507024530 | 64 | 44 | 1.7 | 9.6 | 0.00 | 0.00 | 0.00 | 81 | 1014.0 |
| 20260507024025 | 64 | 283 | 1.7 | 9.6 | 0.00 | 0.00 | 0.00 | 81 | 1013.9 |
| 20260507023751 | 65 | 44 | 1.7 | 9.6 | 0.00 | 0.00 | 0.00 | 81 | 1014.0 |
| 20260507023244 | 65 | 30 | 1.7 | 11.3 | 0.00 | 0.00 | 0.00 | 81 | 1013.9 |
| 20260507022738 | 65 | 26 | 1.7 | 11.3 | 0.00 | 0.00 | 0.00 | 81 | 1013.8 |
| 20260507022001 | 65 | 32 | 1.7 | 8.7 | 0.00 | 0.00 | 0.00 | 81 | 1013.9 |
| 20260507021455 | 65 | 355 | 2.6 | 11.3 | 0.00 | 0.00 | 0.00 | 81 | 1013.8 |
| 20260507020949 | 65 | 69 | 2.6 | 11.3 | 0.00 | 0.00 | 0.00 | 81 | 1013.8 |
| 20260507020713 | 65 | 15 | 1.7 | 7.0 | 0.00 | 0.00 | 0.00 | 80 | 1013.8 |
| 20260507015937 | 65 | 29 | 1.7 | 7.8 | 0.00 | 0.00 | 0.00 | 80 | 1013.6 |
| 20260507015431 | 65 | 311 | 1.7 | 9.6 | 0.00 | 0.00 | 0.00 | 80 | 1013.2 |
| 20260507014925 | 65 | 355 | 2.6 | 9.6 | 0.00 | 0.00 | 0.00 | 80 | 1013.2 |
| 20260507014419 | 65 | 51 | 2.6 | 8.7 | 0.00 | 0.00 | 0.00 | 80 | 1012.9 |
| 20260507013407 | 66 | 52 | 3.5 | 13.9 | 0.00 | 0.00 | 0.00 | 80 | 1013.0 |
| 20260507013132 | 66 | 17 | 3.5 | 13.9 | 0.00 | 0.00 | 0.00 | 79 | 1012.9 |
| 20260507012626 | 66 | 44 | 2.6 | 9.6 | 0.00 | 0.00 | 0.00 | 79 | 1013.0 |
| 20260507011851 | 67 | 28 | 2.6 | 10.4 | 0.00 | 0.00 | 0.00 | 79 | 1013.1 |
| 20260507011351 | 67 | 27 | 2.6 | 10.4 | 0.00 | 0.00 | 0.00 | 79 | 1013.2 |
| 20260507011122 | 67 | 34 | 0.9 | 7.0 | 0.00 | 0.00 | 0.00 | 78 | 1012.9 |
| 20260507010354 | 67 | 26 | 1.7 | 8.7 | 0.00 | 0.00 | 0.00 | 78 | 1013.0 |
| 20260507005851 | 67 | 344 | 3.5 | 11.3 | 0.00 | 0.00 | 0.00 | 78 | 1012.6 |
| 20260507005349 | 68 | 37 | 3.5 | 12.2 | 0.00 | 0.00 | 0.00 | 78 | 1012.5 |
| 20260507004347 | 68 | 51 | 3.5 | 12.2 | 0.00 | 0.00 | 0.00 | 77 | 1012.5 |
| 20260507003847 | 68 | 38 | 4.3 | 12.2 | 0.00 | 0.00 | 0.00 | 77 | 1012.6 |
| 20260507003347 | 69 | 29 | 3.5 | 12.2 | 0.00 | 0.00 | 0.00 | 76 | 1012.5 |
| 20260507002847 | 69 | 5 | 3.5 | 12.2 | 0.00 | 0.00 | 0.00 | 76 | 1012.2 |
| 20260507002347 | 70 | 17 | 2.6 | 12.2 | 0.00 | 0.00 | 0.00 | 75 | 1012.5 |
| 20260507001843 | 70 | 54 | 1.7 | 7.8 | 0.00 | 0.00 | 0.00 | 75 | 1012.5 |
| 20260507001615 | 70 | 49 | 2.6 | 7.8 | 0.00 | 0.00 | 0.00 | 75 | 1012.4 |
| 20260507001115 | 71 | 76 | 2.6 | 8.7 | 0.00 | 0.00 | 0.00 | 75 | 1012.1 |
| 20260507000343 | 71 | 30 | 2.6 | 9.6 | 0.00 | 0.00 | 0.00 | 75 | 1011.9 |
| 20260506235842 | 71 | 34 | 3.5 | 9.6 | 0.00 | 0.00 | 0.00 | 75 | 1012.1 |
| 20260506235342 | 71 | 53 | 3.5 | 10.4 | 0.00 | 0.00 | 0.00 | 74 | 1011.8 |
| 20260506234843 | 72 | 53 | 2.6 | 10.4 | 0.00 | 0.00 | 0.00 | 74 | 1011.7 |
| 20260506234343 | 72 | 74 | 2.6 | 9.6 | 0.00 | 0.00 | 0.00 | 74 | 1011.8 |
| 20260506233843 | 72 | 51 | 2.6 | 10.4 | 0.00 | 0.00 | 0.00 | 73 | 1011.6 |
| 20260506233343 | 72 | 67 | 3.5 | 10.4 | 0.00 | 0.00 | 0.00 | 73 | 1011.6 |
| 20260506232842 | 73 | 37 | 4.3 | 9.6 | 0.00 | 0.00 | 0.00 | 72 | 1011.5 |
| 20260506232342 | 74 | 79 | 3.5 | 9.6 | 0.00 | 0.00 | 0.00 | 72 | 1011.3 |
| 20260506231842 | 74 | 36 | 3.5 | 11.3 | 0.00 | 0.00 | 0.00 | 71 | 1011.2 |
| 20260506231613 | 75 | 37 | 3.5 | 11.3 | 0.00 | 0.00 | 0.00 | 70 | 1011.3 |
| 20260506231114 | 76 | 82 | 3.5 | 8.7 | 0.00 | 0.00 | 0.00 | 70 | 1011.2 |
| 20260506230341 | 76 | 34 | 3.5 | 10.4 | 0.00 | 0.00 | 0.00 | 69 | 1011.3 |
| 20260506225841 | 77 | 344 | 3.5 | 10.4 | 0.00 | 0.00 | 0.00 | 68 | 1011.1 |
| 20260506225341 | 78 | 119 | 4.3 | 12.2 | 0.00 | 0.00 | 0.00 | 67 | 1011.1 |
| 20260506224841 | 79 | 53 | 4.3 | 12.2 | 0.00 | 0.00 | 0.00 | 66 | 1011.0 |
| 20260506224339 | 80 | 43 | 3.5 | 11.3 | 0.00 | 0.00 | 0.00 | 66 | 1010.9 |
| 20260506223839 | 81 | 351 | 4.3 | 11.3 | 0.00 | 0.00 | 0.00 | 67 | 1010.9 |
| 20260506223338 | 81 | 81 | 4.3 | 12.2 | 0.00 | 0.00 | 0.00 | 69 | 1010.7 |
| 20260506222841 | 82 | 5 | 3.5 | 12.2 | 0.00 | 0.00 | 0.00 | 69 | 1010.7 |
| 20260506222341 | 82 | 36 | 3.5 | 10.4 | 0.00 | 0.00 | 0.00 | 69 | 1010.6 |
| 20260506221835 | 81 | 106 | 4.3 | 10.4 | 0.00 | 0.00 | 0.00 | 70 | 1010.5 |
| 20260506221329 | 81 | 40 | 4.3 | 12.2 | 0.00 | 0.00 | 0.00 | 69 | 1010.5 |
| 20260506220823 | 82 | 49 | 4.3 | 12.2 | 0.00 | 0.00 | 0.00 | 69 | 1010.5 |
| 20260506215813 | 82 | 54 | 4.3 | 12.2 | 0.00 | 0.00 | 0.00 | 70 | 1010.5 |
| 20260506215538 | 83 | 17 | 4.3 | 12.2 | 0.00 | 0.00 | 0.00 | 69 | 1010.5 |
| 20260506214759 | 83 | 52 | 3.5 | 11.3 | 0.00 | 0.00 | 0.00 | 68 | 1010.5 |
| 20260506214252 | 83 | 81 | 3.5 | 11.3 | 0.00 | 0.00 | 0.00 | 70 | 1010.4 |
| 20260506213746 | 82 | 95 | 3.5 | 11.3 | 0.00 | 0.00 | 0.00 | 70 | 1010.5 |
| 20260506213240 | 82 | 54 | 3.5 | 11.3 | 0.00 | 0.00 | 0.00 | 70 | 1010.5 |
| 20260506212734 | 82 | 12 | 3.5 | 11.3 | 0.00 | 0.00 | 0.00 | 70 | 1010.6 |
| 20260506212228 | 83 | 42 | 3.5 | 8.7 | 0.00 | 0.00 | 0.00 | 70 | 1010.6 |
| 20260506211953 | 83 | 57 | 3.5 | 10.4 | 0.00 | 0.00 | 0.00 | 69 | 1010.6 |
| 20260506211216 | 85 | 29 | 2.6 | 10.4 | 0.00 | 0.00 | 0.00 | 67 | 1010.4 |
| 20260506210710 | 86 | 61 | 1.7 | 5.2 | 0.00 | 0.00 | 0.00 | 68 | 1010.3 |
| 20260506210205 | 85 | 65 | 2.6 | 5.2 | 0.00 | 0.00 | 0.00 | 67 | 1010.4 |
| 20260506205658 | 85 | 67 | 1.7 | 4.3 | 0.00 | 0.00 | 0.00 | 68 | 1010.5 |
| 20260506205424 | 85 | 76 | 0.9 | 4.3 | 0.00 | 0.00 | 0.00 | 67 | 1010.5 |
| 20260506204646 | 85 | 81 | 0.9 | 3.5 | 0.00 | 0.00 | 0.00 | 67 | 1010.5 |
| 20260506204141 | 85 | 81 | 0.9 | 2.6 | 0.00 | 0.00 | 0.00 | 68 | 1010.5 |
| 20260506203635 | 85 | 81 | 1.7 | 4.3 | 0.00 | 0.00 | 0.00 | 67 | 1010.6 |
| 20260506203128 | 86 | 80 | 1.7 | 4.3 | 0.00 | 0.00 | 0.00 | 66 | 1010.6 |
| 20260506202622 | 86 | 81 | 1.7 | 4.3 | 0.00 | 0.00 | 0.00 | 66 | 1010.6 |
| 20260506202116 | 87 | 107 | 1.7 | 6.1 | 0.00 | 0.00 | 0.00 | 66 | 1010.7 |
| 20260506201611 | 86 | 109 | 0.9 | 6.1 | 0.00 | 0.00 | 0.00 | 66 | 1010.7 |
| 20260506201105 | 86 | 225 | 0.9 | 3.5 | 0.00 | 0.00 | 0.00 | 66 | 1010.7 |
| 20260506200559 | 86 | 226 | 0.9 | 3.5 | 0.00 | 0.00 | 0.00 | 66 | 1010.8 |
| 20260506200053 | 86 | 229 | 0.9 | 3.5 | 0.00 | 0.00 | 0.00 | 67 | 1010.9 |
| 20260506195546 | 85 | 238 | 0.9 | 3.5 | 0.00 | 0.00 | 0.00 | 67 | 1011.0 |
| 20260506195041 | 85 | 239 | 0.9 | 3.5 | 0.00 | 0.00 | 0.00 | 67 | 1011.1 |
| 20260506194534 | 86 | 240 | 1.7 | 3.5 | 0.00 | 0.00 | 0.00 | 68 | 1011.1 |
| 20260506194034 | 85 | 241 | 1.7 | 3.5 | 0.00 | 0.00 | 0.00 | 68 | 1011.1 |
| 20260506193522 | 85 | 230 | 1.7 | 4.3 | 0.00 | 0.00 | 0.00 | 66 | 1011.2 |
| 20260506193016 | 85 | 234 | 0.9 | 5.2 | 0.00 | 0.00 | 0.00 | 69 | 1011.1 |
| 20260506192510 | 84 | 100 | 1.7 | 6.1 | 0.00 | 0.00 | 0.00 | 69 | 1011.1 |
| 20260506192004 | 84 | 100 | 1.7 | 6.1 | 0.00 | 0.00 | 0.00 | 69 | 1011.1 |
| 20260506191459 | 84 | 88 | 1.7 | 6.1 | 0.00 | 0.00 | 0.00 | 69 | 1011.2 |
| 20260506190953 | 83 | 165 | 1.7 | 6.1 | 0.00 | 0.00 | 0.00 | 70 | 1011.2 |
| 20260506190447 | 83 | 114 | 1.7 | 5.2 | 0.00 | 0.00 | 0.00 | 73 | 1011.3 |
| 20260506185942 | 83 | 157 | 1.7 | 5.2 | 0.00 | 0.00 | 0.00 | 72 | 1011.4 |
| 20260506185435 | 83 | 115 | 1.7 | 6.1 | 0.00 | 0.00 | 0.00 | 71 | 1011.4 |
| 20260506184929 | 83 | 155 | 1.7 | 5.2 | 0.00 | 0.00 | 0.00 | 71 | 1011.4 |
| 20260506184422 | 83 | 126 | 1.7 | 6.1 | 0.00 | 0.00 | 0.00 | 74 | 1011.4 |
| 20260506184149 | 83 | 138 | 1.7 | 6.1 | 0.00 | 0.00 | 0.00 | 75 | 1011.6 |
| 20260506183411 | 82 | 139 | 2.6 | 6.1 | 0.00 | 0.00 | 0.00 | 76 | 1011.6 |
| 20260506182358 | 81 | 119 | 2.6 | 6.1 | 0.00 | 0.00 | 0.00 | 76 | 1011.8 |
| 20260506181854 | 81 | 117 | 1.7 | 6.1 | 0.00 | 0.00 | 0.00 | 76 | 1011.8 |
| 20260506181354 | 81 | 113 | 1.7 | 5.2 | 0.00 | 0.00 | 0.00 | 77 | 1012.0 |
| 20260506180854 | 80 | 105 | 1.7 | 5.2 | 0.00 | 0.00 | 0.00 | 78 | 1011.8 |
| 20260506180354 | 80 | 79 | 1.7 | 6.1 | 0.00 | 0.00 | 0.00 | 79 | 1011.9 |
| 20260506175852 | 80 | 80 | 2.6 | 7.8 | 0.00 | 0.00 | 0.00 | 79 | 1012.0 |
| 20260506175350 | 80 | 69 | 2.6 | 7.8 | 0.00 | 0.00 | 0.00 | 79 | 1012.1 |
| 20260506174850 | 80 | 132 | 2.6 | 7.0 | 0.00 | 0.00 | 0.00 | 79 | 1012.1 |
| 20260506174349 | 80 | 81 | 1.7 | 6.1 | 0.00 | 0.00 | 0.00 | 79 | 1012.1 |
| 20260506173850 | 80 | 105 | 1.7 | 6.1 | 0.00 | 0.00 | 0.00 | 80 | 1012.2 |
| 20260506173350 | 79 | 111 | 1.7 | 6.1 | 0.00 | 0.00 | 0.00 | 82 | 1012.1 |
| 20260506172850 | 78 | 92 | 1.7 | 5.2 | 0.00 | 0.00 | 0.00 | 83 | 1012.1 |
| 20260506172350 | 78 | 67 | 1.7 | 7.8 | 0.00 | 0.00 | 0.00 | 82 | 1012.1 |
| 20260506171850 | 78 | 78 | 1.7 | 7.8 | 0.00 | 0.00 | 0.00 | 83 | 1012.1 |
| 20260506171345 | 78 | 80 | 1.7 | 5.2 | 0.00 | 0.00 | 0.00 | 84 | 1012.4 |
| 20260506170846 | 78 | 87 | 1.7 | 4.3 | 0.00 | 0.00 | 0.00 | 83 | 1012.2 |
| 20260506170345 | 78 | 85 | 1.7 | 6.1 | 0.00 | 0.00 | 0.00 | 83 | 1012.2 |
| 20260506165846 | 78 | 85 | 1.7 | 6.1 | 0.00 | 0.00 | 0.00 | 82 | 1012.1 |
| 20260506165346 | 78 | 62 | 1.7 | 6.1 | 0.00 | 0.00 | 0.00 | 83 | 1012.2 |
| 20260506165116 | 78 | 59 | 1.7 | 6.1 | 0.00 | 0.00 | 0.00 | 82 | 1012.1 |
| 20260506163846 | 78 | 91 | 0.9 | 5.2 | 0.00 | 0.00 | 0.00 | 83 | 1012.2 |
| 20260506163346 | 78 | 84 | 1.7 | 3.5 | 0.00 | 0.00 | 0.00 | 84 | 1012.1 |
| 20260506162846 | 78 | 84 | 1.7 | 3.5 | 0.00 | 0.00 | 0.00 | 83 | 1012.1 |
| 20260506162617 | 78 | 87 | 1.7 | 3.5 | 0.00 | 0.00 | 0.00 | 84 | 1012.1 |
| 20260506161345 | 78 | 89 | 0.9 | 5.2 | 0.00 | 0.00 | 0.00 | 84 | 1012.1 |
| 20260506160842 | 78 | 97 | 0.9 | 5.2 | 0.00 | 0.00 | 0.00 | 84 | 1012.0 |
| 20260506160613 | 78 | 151 | 0.9 | 4.3 | 0.00 | 0.00 | 0.00 | 84 | 1012.0 |
| 20260506160111 | 77 | 152 | 0.9 | 4.3 | 0.00 | 0.00 | 0.00 | 84 | 1011.9 |
| 20260506155338 | 77 | 153 | 0.9 | 4.3 | 0.00 | 0.00 | 0.00 | 86 | 1011.8 |
| 20260506154838 | 76 | 157 | 0.9 | 2.6 | 0.00 | 0.00 | 0.00 | 87 | 1011.8 |
| 20260506154333 | 76 | 158 | 0.9 | 4.3 | 0.00 | 0.00 | 0.00 | 87 | 1011.8 |
| 20260506153834 | 76 | 158 | 0.9 | 4.3 | 0.00 | 0.00 | 0.00 | 86 | 1011.8 |
| 20260506153332 | 76 | 161 | 0.0 | 1.7 | 0.00 | 0.00 | 0.00 | 87 | 1011.7 |
| 20260506152832 | 76 | 161 | 0.0 | 1.7 | 0.00 | 0.00 | 0.00 | 87 | 1011.7 |
| 20260506152332 | 76 | 161 | 0.0 | 1.7 | 0.00 | 0.00 | 0.00 | 87 | 1011.7 |
| 20260506151831 | 76 | 161 | 0.0 | 1.7 | 0.00 | 0.00 | 0.00 | 87 | 1011.5 |
| 20260506151324 | 76 | 161 | 0.0 | 3.5 | 0.00 | 0.00 | 0.00 | 87 | 1011.5 |
| 20260506150817 | 76 | 161 | 0.9 | 3.5 | 0.00 | 0.00 | 0.00 | 87 | 1011.4 |
| 20260506150311 | 76 | 161 | 0.0 | 1.7 | 0.00 | 0.00 | 0.00 | 87 | 1011.3 |
| 20260506145805 | 76 | 161 | 0.0 | 1.7 | 0.00 | 0.00 | 0.00 | 87 | 1011.3 |
| 20260506145258 | 76 | 161 | 0.0 | 1.7 | 0.00 | 0.00 | 0.00 | 87 | 1011.3 |
| 20260506144753 | 76 | 161 | 0.9 | 3.5 | 0.00 | 0.00 | 0.00 | 87 | 1011.3 |
| 20260506144518 | 75 | 161 | 0.9 | 3.5 | 0.00 | 0.00 | 0.00 | 87 | 1011.3 |
| 20260506143741 | 75 | 161 | 0.9 | 3.5 | 0.00 | 0.00 | 0.00 | 87 | 1011.4 |
| 20260506143235 | 75 | 161 | 0.0 | 1.7 | 0.00 | 0.00 | 0.00 | 88 | 1011.3 |
| 20260506142728 | 75 | 161 | 0.0 | 1.7 | 0.00 | 0.00 | 0.00 | 88 | 1011.1 |
| 20260506142223 | 75 | 161 | 0.9 | 3.5 | 0.00 | 0.00 | 0.00 | 89 | 1011.1 |
| 20260506141717 | 75 | 161 | 0.9 | 3.5 | 0.00 | 0.00 | 0.00 | 89 | 1010.9 |
| 20260506141211 | 74 | 161 | 0.0 | 1.7 | 0.00 | 0.00 | 0.00 | 90 | 1010.8 |
| 20260506140705 | 74 | 161 | 0.9 | 3.5 | 0.00 | 0.00 | 0.00 | 90 | 1010.8 |
| 20260506140159 | 74 | 161 | 0.9 | 4.3 | 0.00 | 0.00 | 0.00 | 90 | 1010.7 |
| 20260506135923 | 74 | 161 | 0.9 | 4.3 | 0.00 | 0.00 | 0.00 | 90 | 1010.6 |
| 20260506135147 | 74 | 107 | 0.9 | 2.6 | 0.00 | 0.00 | 0.00 | 91 | 1010.5 |
| 20260506134641 | 74 | 107 | 0.9 | 2.6 | 0.00 | 0.00 | 0.00 | 91 | 1010.4 |
| 20260506134135 | 74 | 117 | 0.9 | 3.5 | 0.00 | 0.00 | 0.00 | 91 | 1010.2 |
| 20260506133629 | 74 | 117 | 0.9 | 3.5 | 0.00 | 0.00 | 0.00 | 91 | 1009.9 |
| 20260506133123 | 74 | 111 | 0.9 | 5.2 | 0.00 | 0.00 | 0.00 | 91 | 1010.0 |
| 20260506132617 | 74 | 111 | 1.7 | 5.2 | 0.00 | 0.00 | 0.00 | 91 | 1010.0 |
| 20260506132342 | 74 | 128 | 0.9 | 5.2 | 0.00 | 0.00 | 0.00 | 91 | 1009.8 |
| 20260506131605 | 74 | 131 | 0.9 | 3.5 | 0.00 | 0.00 | 0.00 | 91 | 1009.9 |
| 20260506131059 | 74 | 130 | 0.9 | 3.5 | 0.00 | 0.00 | 0.00 | 91 | 1009.7 |
| 20260506130554 | 74 | 130 | 0.9 | 3.5 | 0.00 | 0.00 | 0.00 | 91 | 1009.6 |
| 20260506130317 | 74 | 128 | 0.9 | 5.2 | 0.00 | 0.00 | 0.00 | 91 | 1009.5 |
| 20260506125035 | 74 | 188 | 0.9 | 4.3 | 0.00 | 0.00 | 0.00 | 91 | 1009.3 |
| 20260506124529 | 74 | 188 | 0.9 | 4.3 | 0.00 | 0.00 | 0.00 | 91 | 1009.3 |
| 20260506124022 | 74 | 191 | 0.9 | 2.6 | 0.00 | 0.00 | 0.00 | 91 | 1009.3 |
| 20260506123517 | 74 | 191 | 0.9 | 3.5 | 0.00 | 0.00 | 0.00 | 91 | 1009.5 |
| 20260506123015 | 74 | 191 | 0.9 | 3.5 | 0.00 | 0.00 | 0.00 | 91 | 1009.5 |
| 20260506122515 | 74 | 178 | 0.9 | 4.3 | 0.00 | 0.00 | 0.00 | 91 | 1009.3 |
| 20260506122244 | 74 | 178 | 0.9 | 4.3 | 0.00 | 0.00 | 0.00 | 91 | 1009.3 |
| 20260506121514 | 74 | 188 | 0.0 | 2.6 | 0.00 | 0.00 | 0.00 | 90 | 1009.5 |
| 20260506121011 | 74 | 188 | 0.9 | 3.5 | 0.00 | 0.00 | 0.00 | 91 | 1009.5 |
| 20260506120512 | 74 | 188 | 0.9 | 3.5 | 0.00 | 0.00 | 0.00 | 90 | 1009.6 |
| 20260506115511 | 74 | 188 | 0.9 | 2.6 | 0.00 | 0.00 | 0.00 | 90 | 1009.5 |
| 20260506115009 | 74 | 188 | 0.0 | 2.6 | 0.00 | 0.00 | 0.00 | 91 | 1009.3 |
| 20260506114508 | 74 | 188 | 0.0 | 0.9 | 0.00 | 0.00 | 0.00 | 90 | 1009.3 |
| 20260506114005 | 74 | 188 | 0.0 | 2.6 | 0.00 | 0.00 | 0.00 | 90 | 1009.5 |
| 20260506113734 | 74 | 188 | 0.0 | 2.6 | 0.00 | 0.00 | 0.00 | 90 | 1009.5 |
| 20260506113231 | 74 | 188 | 0.0 | 1.7 | 0.00 | 0.00 | 0.00 | 90 | 1009.3 |
| 20260506112459 | 74 | 188 | 0.0 | 0.0 | 0.00 | 0.00 | 0.00 | 90 | 1009.3 |
| 20260506111957 | 74 | 188 | 0.0 | 0.9 | 0.00 | 0.00 | 0.00 | 90 | 1009.5 |
| 20260506111508 | 74 | 188 | 0.0 | 0.9 | 0.00 | 0.00 | 0.00 | 90 | 1009.6 |
| 20260506111224 | 74 | 188 | 0.0 | 1.7 | 0.00 | 0.00 | 0.00 | 90 | 1009.6 |
| 20260506110451 | 74 | 188 | 0.9 | 1.7 | 0.00 | 0.00 | 0.00 | 90 | 1009.5 |
| 20260506110222 | 74 | 188 | 0.0 | 1.7 | 0.00 | 0.00 | 0.00 | 90 | 1009.5 |
| 20260506105719 | 74 | 188 | 0.0 | 1.7 | 0.00 | 0.00 | 0.00 | 91 | 1009.3 |
| 20260506104449 | 74 | 188 | 0.0 | 2.6 | 0.00 | 0.00 | 0.00 | 91 | 1009.3 |
| 20260506103946 | 74 | 188 | 0.9 | 3.5 | 0.00 | 0.00 | 0.00 | 91 | 1009.2 |
| 20260506103447 | 74 | 188 | 0.9 | 3.5 | 0.00 | 0.00 | 0.00 | 91 | 1009.1 |
| 20260506102947 | 74 | 188 | 0.0 | 3.5 | 0.00 | 0.00 | 0.00 | 91 | 1009.2 |
| 20260506102447 | 74 | 188 | 0.0 | 3.5 | 0.00 | 0.00 | 0.00 | 91 | 1009.3 |
| 20260506101946 | 74 | 189 | 0.0 | 1.7 | 0.00 | 0.00 | 0.00 | 91 | 1009.3 |
| 20260506101446 | 74 | 189 | 0.0 | 1.7 | 0.00 | 0.00 | 0.00 | 91 | 1009.3 |
| 20260506100947 | 74 | 189 | 0.9 | 2.6 | 0.00 | 0.00 | 0.00 | 91 | 1009.3 |
| 20260506100717 | 74 | 189 | 0.9 | 2.6 | 0.00 | 0.00 | 0.00 | 91 | 1009.3 |
| 20260506095947 | 74 | 188 | 0.9 | 2.6 | 0.00 | 0.00 | 0.00 | 91 | 1009.5 |
| 20260506094947 | 74 | 189 | 1.7 | 7.0 | 0.00 | 0.00 | 0.00 | 91 | 1009.3 |
| 20260506094446 | 74 | 167 | 0.9 | 5.2 | 0.00 | 0.00 | 0.00 | 91 | 1009.3 |
| 20260506093946 | 74 | 168 | 0.9 | 6.1 | 0.00 | 0.00 | 0.00 | 91 | 1009.2 |
| 20260506093447 | 74 | 157 | 0.9 | 6.1 | 0.00 | 0.00 | 0.00 | 91 | 1009.3 |
| 20260506093215 | 74 | 152 | 1.7 | 6.1 | 0.00 | 0.00 | 0.00 | 91 | 1009.2 |
| 20260506092445 | 74 | 211 | 1.7 | 6.1 | 0.00 | 0.00 | 0.00 | 91 | 1009.2 |
| 20260506091942 | 74 | 190 | 1.7 | 5.2 | 0.00 | 0.00 | 0.00 | 90 | 1009.2 |
| 20260506091442 | 74 | 175 | 1.7 | 5.2 | 0.00 | 0.00 | 0.00 | 90 | 1009.1 |
| 20260506090942 | 74 | 180 | 1.7 | 7.0 | 0.00 | 0.00 | 0.00 | 90 | 1008.9 |
| 20260506090442 | 74 | 155 | 1.7 | 7.0 | 0.00 | 0.00 | 0.00 | 90 | 1009.1 |
| 20260506090214 | 74 | 107 | 1.7 | 7.0 | 0.00 | 0.00 | 0.00 | 90 | 1009.0 |
| 20260506085445 | 74 | 164 | 1.7 | 7.0 | 0.00 | 0.00 | 0.00 | 90 | 1008.9 |
| 20260506084442 | 74 | 187 | 1.7 | 7.8 | 0.00 | 0.00 | 0.00 | 89 | 1009.1 |
| 20260506083942 | 74 | 163 | 2.6 | 7.8 | 0.00 | 0.00 | 0.00 | 89 | 1009.2 |
| 20260506083441 | 74 | 193 | 2.6 | 6.1 | 0.00 | 0.00 | 0.00 | 89 | 1009.2 |
| 20260506082939 | 74 | 155 | 3.5 | 8.7 | 0.00 | 0.00 | 0.00 | 89 | 1009.2 |
| 20260506082707 | 74 | 152 | 2.6 | 8.7 | 0.00 | 0.00 | 0.00 | 89 | 1009.2 |
| 20260506081935 | 74 | 138 | 2.6 | 7.8 | 0.00 | 0.00 | 0.00 | 89 | 1009.2 |
| 20260506081435 | 74 | 150 | 2.6 | 7.8 | 0.00 | 0.00 | 0.00 | 89 | 1009.3 |
| 20260506080934 | 74 | 165 | 2.6 | 6.1 | 0.00 | 0.00 | 0.00 | 89 | 1009.6 |
| 20260506080434 | 74 | 162 | 1.7 | 7.8 | 0.00 | 0.00 | 0.00 | 89 | 1009.5 |
| 20260506073410 | 75 | 159 | 0.9 | 4.3 | 0.00 | 0.00 | 0.00 | 89 | 1009.6 |
| 20260506072904 | 75 | 161 | 0.9 | 4.3 | 0.00 | 0.00 | 0.00 | 89 | 1009.7 |
| 20260506072358 | 75 | 161 | 0.9 | 4.3 | 0.00 | 0.00 | 0.00 | 89 | 1009.7 |
| 20260506071853 | 75 | 163 | 0.9 | 4.3 | 0.00 | 0.00 | 0.00 | 89 | 1009.9 |
| 20260506071347 | 75 | 163 | 0.9 | 6.1 | 0.00 | 0.00 | 0.00 | 89 | 1009.8 |
| 20260506070841 | 75 | 165 | 0.9 | 6.1 | 0.00 | 0.00 | 0.00 | 89 | 1009.8 |
| 20260506070335 | 75 | 139 | 0.9 | 4.3 | 0.00 | 0.00 | 0.00 | 89 | 1009.9 |
| 20260506062247 | 75 | 175 | 1.7 | 7.0 | 0.00 | 0.00 | 0.00 | 88 | 1009.8 |
| 20260506061741 | 75 | 159 | 1.7 | 7.0 | 0.00 | 0.00 | 0.00 | 88 | 1009.8 |
| 20260506061235 | 75 | 113 | 2.6 | 8.7 | 0.00 | 0.00 | 0.00 | 88 | 1010.0 |
| 20260506060729 | 75 | 92 | 2.6 | 8.7 | 0.00 | 0.00 | 0.00 | 88 | 1009.9 |
| 20260506060454 | 75 | 160 | 1.7 | 7.0 | 0.00 | 0.00 | 0.00 | 88 | 1009.8 |
| 20260506051210 | 76 | 171 | 1.7 | 9.6 | 0.00 | 0.00 | 0.00 | 87 | 1009.8 |
| 20260506050939 | 76 | 101 | 1.7 | 7.0 | 0.00 | 0.00 | 0.00 | 87 | 1009.8 |
| 20260506050206 | 76 | 154 | 2.6 | 7.8 | 0.00 | 0.00 | 0.00 | 87 | 1009.9 |
| 20260506044703 | 76 | 169 | 1.7 | 7.0 | 0.00 | 0.00 | 0.00 | 86 | 1009.7 |
| 20260506044204 | 77 | 123 | 1.7 | 6.1 | 0.00 | 0.00 | 0.00 | 86 | 1009.7 |
| 20260506043932 | 77 | 113 | 1.7 | 6.1 | 0.00 | 0.00 | 0.00 | 86 | 1009.7 |
| 20260506043202 | 77 | 107 | 1.7 | 5.2 | 0.00 | 0.00 | 0.00 | 86 | 1009.7 |
| 20260506042701 | 77 | 123 | 1.7 | 5.2 | 0.00 | 0.00 | 0.00 | 86 | 1009.6 |
| 20260506042200 | 77 | 123 | 1.7 | 6.1 | 0.00 | 0.00 | 0.00 | 86 | 1009.6 |
| 20260506041655 | 77 | 121 | 1.7 | 7.0 | 0.00 | 0.00 | 0.00 | 85 | 1009.7 |
| 20260506041149 | 77 | 164 | 1.7 | 7.0 | 0.00 | 0.00 | 0.00 | 85 | 1009.6 |
| 20260506040643 | 77 | 136 | 1.7 | 6.1 | 0.00 | 0.00 | 0.00 | 85 | 1009.5 |
| 20260506040137 | 78 | 142 | 1.7 | 7.0 | 0.00 | 0.00 | 0.00 | 85 | 1009.6 |
| 20260506035631 | 78 | 161 | 1.7 | 7.0 | 0.00 | 0.00 | 0.00 | 85 | 1009.3 |
| 20260506035125 | 78 | 150 | 1.7 | 6.1 | 0.00 | 0.00 | 0.00 | 85 | 1009.3 |
| 20260506034619 | 78 | 147 | 1.7 | 7.0 | 0.00 | 0.00 | 0.00 | 85 | 1009.2 |
| 20260506034113 | 78 | 163 | 1.7 | 7.0 | 0.00 | 0.00 | 0.00 | 84 | 1009.1 |
| 20260506033838 | 78 | 140 | 1.7 | 5.2 | 0.00 | 0.00 | 0.00 | 84 | 1009.0 |
| 20260506033101 | 78 | 132 | 1.7 | 5.2 | 0.00 | 0.00 | 0.00 | 84 | 1008.9 |
| 20260506032826 | 78 | 198 | 1.7 | 7.8 | 0.00 | 0.00 | 0.00 | 84 | 1008.9 |
| 20260506032049 | 79 | 152 | 1.7 | 7.8 | 0.00 | 0.00 | 0.00 | 83 | 1008.8 |
| 20260506031543 | 79 | 128 | 1.7 | 6.1 | 0.00 | 0.00 | 0.00 | 83 | 1008.7 |
| 20260506031037 | 79 | 121 | 2.6 | 10.4 | 0.00 | 0.00 | 0.00 | 82 | 1008.6 |
| 20260506030531 | 79 | 97 | 2.6 | 10.4 | 0.00 | 0.00 | 0.00 | 82 | 1008.6 |